World > North America > United States > New York

Solon Pond, New York Regional Weather

Lat: 42.62N, Lon: 75.92W
Wx Zone: NYZ044
Feedback

Solon Pond, NY Regional Weather

Expires:201908241800;;142873
ASUS41 KBGM 241710
RWRBGM

REGIONAL WEATHER ROUNDUP
NATIONAL WEATHER SERVICE BINGHAMTON NY
100 PM EDT SAT AUG 24 2019

Note: "fair" indicates few or no clouds below 12,000 feet with no
significant weather and/or obstructions to visibility.

* = Station(s) that does not report precipitation, such as rain, 
snow, etc, also no thunder or fog.


NYZ009-015>018-022>025-036-037-044>046-055>057-062-241800
...Central New York...
  
CITY           SKY/WX    TMP DP  RH WIND       PRES   REMARKS
Binghamton     CLOUDY    64  48  56 N8        30.25S                  
Cortland       CLOUDY    63  48  59 N9        30.27F                  
Dansville      CLOUDY    66  54  65 NW8       30.28F                  
Elmira         PTSUNNY   69  54  58 N13       30.25F                  
Endicott       PTSUNNY   66  46  48 CALM      30.24S                  
Ithaca         CLOUDY    66  51  58 N13       30.27S                  
Hamilton       PTSUNNY   66  48  52 N9        30.25F                  
Monticello     PTSUNNY   67  48  50 N7        30.23F                  
Norwich        PTSUNNY   64  45  48 N8        30.25S                  
Oneonta        SUNNY     64  46  52 NE6       30.25S                  
Penn Yan       CLOUDY    64  52  64 VRB6      30.29S                  
Rome           CLOUDY    68  51  54 W6        30.25S                  
Seneca Falls   CLOUDY    64  52  63 N6        30.28S                  
Sidney         PTSUNNY   68  48  49 N3        30.24S                  
Skaneateles    CLOUDY    63  52  67 VRB6      30.27F                  
Syracuse       CLOUDY    67  51  56 N9        30.26F                  
$$
 

SKY/WX - Weather  TMP - Temperature  DP - Dew Point  RH - Relative Humidity
WIND - Wind Direction/Speed PRES - Barometric Pressure VSB - Visibility
WCI - Wind Chill Index E13G22 Wind - East Wind 13 mph/Gusts of 22 mph